When you browse on this site, cookies collect data to enhance your experience and personalize the content and advertising you see.
Visit our Privacy Policy to learn more. By continuing to use the site, you agree to this use of cookies and data.
  • In Romania
  • List of Countries
  • For 7 days
  • Water Temperature
  • Satellite Maps
  • Weather Map
  • Weather Widgets
  • user-avatar
    Login

    Hourly Weather Shaki

    Today, 25 June, Tuesday

    Time Temperature Precipitation Wind Pressure Humidity
    00:00 +28°C° 0 mm 1 mps 734 mmHg 30%
    01:00 +28°C° 0 mm 2 mps 734 mmHg 32%
    02:00 +27°C° 0 mm 2 mps 734 mmHg 34%
    03:00 +27°C° 0 mm 1 mps 734 mmHg 33%
    04:00 +27°C° 0 mm 1 mps 734 mmHg 36%
    05:00 +28°C° 0 mm 1 mps 735 mmHg 38%
    06:00 +29°C° 0 mm 1 mps 735 mmHg 40%
    07:00 +31°C° 0 mm 1 mps 735 mmHg 36%
    08:00 +34°C° 0 mm 2 mps 735 mmHg 31%
    09:00 +36°C° 0 mm 2 mps 735 mmHg 25%
    10:00 +37°C° 0 mm 2 mps 735 mmHg 23%
    11:00 +38°C° 0 mm 3 mps 735 mmHg 21%
    12:00 +40°C° 0 mm 3 mps 735 mmHg 19%
    13:00 +40°C° 0 mm 3 mps 735 mmHg 18%
    14:00 +42°C° 0 mm 3 mps 734 mmHg 17%
    15:00 +42°C° 0 mm 3 mps 734 mmHg 16%
    16:00 +41°C° 0 mm 4 mps 734 mmHg 18%
    17:00 +41°C° 0 mm 4 mps 734 mmHg 20%
    18:00 +40°C° 0 mm 4 mps 734 mmHg 22%
    19:00 +36°C° 0 mm 4 mps 735 mmHg 23%
    20:00 +34°C° 0 mm 3 mps 735 mmHg 25%
    21:00 +30°C° 0 mm 2 mps 735 mmHg 26%
    22:00 +30°C° 0 mm 2 mps 735 mmHg 27%
    23:00 +29°C° 0 mm 2 mps 735 mmHg 28%

    Tomorrow, 26 June, Wednesday

    Time Temperature Precipitation Wind Pressure Humidity
    00:00 +28°C° 0 mm 2 mps 735 mmHg 28%
    01:00 +28°C° 0 mm 2 mps 735 mmHg 29%
    02:00 +28°C° 0 mm 1 mps 735 mmHg 30%
    03:00 +27°C° 0 mm 1 mps 735 mmHg 30%
    04:00 +28°C° 0 mm 1 mps 735 mmHg 31%
    05:00 +29°C° 0 mm 1 mps 735 mmHg 32%
    06:00 +30°C° 0 mm 1 mps 735 mmHg 33%
    07:00 +31°C° 0 mm 1 mps 735 mmHg 31%
    08:00 +34°C° 0 mm 2 mps 735 mmHg 28%
    09:00 +35°C° 0 mm 3 mps 735 mmHg 25%
    10:00 +36°C° 0 mm 3 mps 735 mmHg 24%
    11:00 +37°C° 0 mm 3 mps 735 mmHg 23%
    12:00 +38°C° 0 mm 3 mps 735 mmHg 21%
    13:00 +39°C° 0 mm 3 mps 735 mmHg 20%
    14:00 +39°C° 0 mm 3 mps 734 mmHg 19%
    15:00 +40°C° 0 mm 3 mps 734 mmHg 18%
    16:00 +40°C° 0 mm 4 mps 734 mmHg 21%
    17:00 +38°C° 0 mm 4 mps 734 mmHg 24%
    18:00 +37°C° 0 mm 4 mps 734 mmHg 27%
    19:00 +35°C° 0 mm 4 mps 734 mmHg 33%
    20:00 +33°C° 0 mm 4 mps 734 mmHg 38%
    21:00 +30°C° 0 mm 4 mps 735 mmHg 43%
    22:00 +29°C° 0.2 mm 4 mps 734 mmHg 49%
    23:00 +28°C° 0.2 mm 3 mps 734 mmHg 55%

    Day after tomorrow, 27 June, Thursday

    Time Temperature Precipitation Wind Pressure Humidity
    00:00 +27°C° 0.2 mm 3 mps 734 mmHg 60%
    01:00 +26°C° 0.2 mm 3 mps 734 mmHg 62%
    02:00 +26°C° 0.2 mm 2 mps 734 mmHg 63%
    03:00 +26°C° 0.2 mm 2 mps 734 mmHg 65%
    04:00 +26°C° 0 mm 2 mps 734 mmHg 64%
    05:00 +27°C° 0 mm 2 mps 734 mmHg 63%
    06:00 +27°C° 0 mm 2 mps 734 mmHg 62%
    07:00 +28°C° 0 mm 2 mps 734 mmHg 59%
    08:00 +29°C° 0 mm 3 mps 734 mmHg 56%
    09:00 +31°C° 0 mm 3 mps 734 mmHg 52%
    10:00 +33°C° 0.1 mm 4 mps 734 mmHg 49%
    11:00 +34°C° 0.1 mm 4 mps 733 mmHg 45%
    12:00 +35°C° 0.1 mm 4 mps 733 mmHg 41%
    13:00 +34°C° 0.2 mm 4 mps 733 mmHg 42%
    14:00 +34°C° 0.2 mm 4 mps 732 mmHg 42%
    15:00 +34°C° 0.2 mm 4 mps 732 mmHg 43%
    16:00 +34°C° 0 mm 4 mps 732 mmHg 44%
    17:00 +33°C° 0 mm 4 mps 731 mmHg 45%
    18:00 +33°C° 0 mm 4 mps 731 mmHg 45%
    19:00 +30°C° 0 mm 4 mps 731 mmHg 46%
    20:00 +29°C° 0 mm 4 mps 731 mmHg 46%
    21:00 +27°C° 0 mm 4 mps 731 mmHg 46%
    22:00 +26°C° 0 mm 4 mps 731 mmHg 48%
    23:00 +25°C° 0 mm 3 mps 731 mmHg 50%

    28 June, Friday

    Time Temperature Precipitation Wind Pressure Humidity
    00:00 +24°C° 0 mm 3 mps 730 mmHg 51%
    01:00 +24°C° 0 mm 2 mps 730 mmHg 52%
    02:00 +24°C° 0 mm 2 mps 730 mmHg 53%
    03:00 +23°C° 0 mm 1 mps 730 mmHg 54%
    04:00 +24°C° 0 mm 1 mps 729 mmHg 53%
    05:00 +25°C° 0 mm 1 mps 729 mmHg 51%
    06:00 +25°C° 0 mm 1 mps 729 mmHg 50%
    07:00 +27°C° 0 mm 1 mps 729 mmHg 47%
    08:00 +28°C° 0 mm 2 mps 729 mmHg 43%
    09:00 +29°C° 0 mm 2 mps 729 mmHg 40%
    10:00 +30°C° 0 mm 2 mps 728 mmHg 38%
    11:00 +31°C° 0 mm 2 mps 728 mmHg 36%
    12:00 +33°C° 0 mm 3 mps 727 mmHg 34%
    13:00 +34°C° 0.1 mm 2 mps 727 mmHg 34%
    14:00 +34°C° 0.1 mm 2 mps 726 mmHg 33%
    15:00 +35°C° 0.1 mm 2 mps 726 mmHg 32%
    16:00 +34°C° 0 mm 3 mps 726 mmHg 33%
    17:00 +33°C° 0 mm 3 mps 726 mmHg 35%
    18:00 +33°C° 0 mm 3 mps 726 mmHg 37%
    19:00 +30°C° 0 mm 2 mps 726 mmHg 41%
    20:00 +29°C° 0 mm 2 mps 726 mmHg 44%
    21:00 +27°C° 0 mm 1 mps 726 mmHg 48%
    22:00 +27°C° 0 mm 1 mps 726 mmHg 48%
    23:00 +27°C° 0 mm 1 mps 726 mmHg 47%

    29 June, Saturday

    Time Temperature Precipitation Wind Pressure Humidity
    00:00 +27°C° 0 mm 1 mps 726 mmHg 47%
    01:00 +26°C° 0 mm 1 mps 726 mmHg 48%
    02:00 +26°C° 0 mm 1 mps 726 mmHg 48%
    03:00 +26°C° 0 mm 1 mps 726 mmHg 49%
    04:00 +27°C° 0 mm 1 mps 726 mmHg 50%
    05:00 +27°C° 0 mm 1 mps 726 mmHg 51%
    06:00 +27°C° 0 mm 1 mps 726 mmHg 53%
    07:00 +29°C° 0 mm 1 mps 726 mmHg 48%
    08:00 +31°C° 0 mm 2 mps 726 mmHg 43%
    09:00 +33°C° 0 mm 3 mps 726 mmHg 38%
    10:00 +34°C° 0.1 mm 3 mps 726 mmHg 36%
    11:00 +35°C° 0.1 mm 2 mps 726 mmHg 34%
    12:00 +37°C° 0.1 mm 2 mps 726 mmHg 32%
    13:00 +37°C° 0.1 mm 3 mps 726 mmHg 32%
    14:00 +37°C° 0.1 mm 3 mps 725 mmHg 31%
    15:00 +37°C° 0.1 mm 3 mps 725 mmHg 30%
    16:00 +37°C° 0.1 mm 4 mps 725 mmHg 33%
    17:00 +36°C° 0.1 mm 4 mps 725 mmHg 36%
    18:00 +35°C° 0.1 mm 4 mps 726 mmHg 38%
    19:00 +33°C° 0.2 mm 4 mps 726 mmHg 44%
    20:00 +30°C° 0.2 mm 3 mps 727 mmHg 50%
    21:00 +27°C° 0.2 mm 3 mps 727 mmHg 56%
    22:00 +26°C° 0.9 mm 3 mps 727 mmHg 63%
    23:00 +25°C° 0.9 mm 2 mps 728 mmHg 70%

    30 June, Sunday

    Time Temperature Precipitation Wind Pressure Humidity
    00:00 +24°C° 0.9 mm 2 mps 728 mmHg 77%
    01:00 +24°C° 0.4 mm 2 mps 728 mmHg 79%
    02:00 +24°C° 0.4 mm 2 mps 728 mmHg 80%
    03:00 +23°C° 0.4 mm 1 mps 728 mmHg 82%
    04:00 +24°C° 0.3 mm 1 mps 728 mmHg 81%
    05:00 +24°C° 0.3 mm 2 mps 728 mmHg 80%
    06:00 +24°C° 0.3 mm 2 mps 728 mmHg 80%
    07:00 +24°C° 0.9 mm 2 mps 728 mmHg 81%
    08:00 +24°C° 0.9 mm 1 mps 728 mmHg 82%
    09:00 +24°C° 0.9 mm 1 mps 728 mmHg 84%
    10:00 +24°C° 0.4 mm 2 mps 728 mmHg 82%
    11:00 +25°C° 0.4 mm 2 mps 728 mmHg 81%
    12:00 +25°C° 0.4 mm 3 mps 728 mmHg 79%
    13:00 +23°C° 0.7 mm 4 mps 728 mmHg 81%
    14:00 +23°C° 0.7 mm 4 mps 728 mmHg 82%
    15:00 +22°C° 0.7 mm 4 mps 728 mmHg 83%
    16:00 +22°C° 0.6 mm 4 mps 728 mmHg 83%
    17:00 +22°C° 0.6 mm 4 mps 728 mmHg 83%
    18:00 +22°C° 0.6 mm 4 mps 728 mmHg 83%
    19:00 +21°C° 3.6 mm 4 mps 729 mmHg 86%
    20:00 +20°C° 3.6 mm 4 mps 729 mmHg 89%
    21:00 +20°C° 3.6 mm 3 mps 730 mmHg 93%
    22:00 +19°C° 2.6 mm 3 mps 730 mmHg 93%
    23:00 +19°C° 2.6 mm 3 mps 730 mmHg 93%
    Show more